Forest City, IA

3:53 PM CST on December 12, 2017 (GMT -0600)
Forest City Municipal

Weather History for KFXY - October, 2012

Change the Weather History Date:

Thursday, October 11, 2012

  Actual Average Record
Temperature  
Mean Temperature 40 °F -  
Max Temperature 48 °F 63 °F 82 °F (2015)
Min Temperature 32 °F 39 °F 28 °F (2014)
Degree Days  
Heating Degree Days 24    
Moisture  
Dew Point 26 °F    
Average Humidity 50    
Maximum Humidity 61    
Minimum Humidity 34    
Precipitation  
Precipitation 0.00 in - - ()
Sea Level Pressure  
Sea Level Pressure 30.11 in    
Wind  
Wind Speed 12 mph (NW)    
Max Wind Speed 17 mph    
Max Gust Speed 24 mph    
Visibility 10 miles    
Events Rain    
Averages and records for this station are not official NWS values.
T = Trace of Precipitation, MM = Missing Value Source: NWS Daily Summary

Daily Weather History Graph

Daily Weather History Graph

Search for Another Location

Airport or City:

Trip Planner

Search our weather history database for the weather conditions in past years. The results will help you decide how hot, cold, wet, or windy it might be!

Date:

Astronomy

Oct. 11, 2012 Rise Set
Actual Time 7:24 AM CDT 6:37 PM CDT
Civil Twilight 6:55 AM CDT 7:05 PM CDT
Nautical Twilight 6:22 AM CDT 7:38 PM CDT
Astronomical Twilight 5:49 AM CDT 8:11 PM CDT
Moon 2:56 AM CDT (10/11) 4:19 PM CDT (10/11)
Length of Visible Light 12h 10m
Length of Day
11h 13m
Waning Crescent, 18% of the Moon is Illuminated
Oct 11
Waning Crescent
Oct 15
New
Oct 21
First Quarter
Oct 29
Full
Nov 6
Last Quarter

Hourly Weather History & Observations

Time (CDT) Temp. Windchill Dew Point Humidity Pressure Visibility Wind Dir Wind Speed Gust Speed Precip Events Conditions
12:15 AM 44.6 °F 38.4 °F 26.6 °F 49% 29.95 in 10.0 mi South 12.7 mph - N/A   Clear
12:35 AM 44.6 °F 37.8 °F 26.6 °F 49% 29.94 in 10.0 mi SSW 15.0 mph 19.6 mph N/A   Clear
1:35 AM 44.6 °F 38.4 °F 28.4 °F 53% 29.93 in 10.0 mi SSW 12.7 mph 19.6 mph N/A   Clear
1:55 AM 44.6 °F 38.4 °F 28.4 °F 53% 29.92 in 10.0 mi SSW 12.7 mph 19.6 mph N/A   Clear
2:35 AM 44.6 °F 37.8 °F 28.4 °F 53% 29.92 in 10.0 mi SSW 15.0 mph 21.9 mph N/A   Clear
2:55 AM 44.6 °F 37.8 °F 28.4 °F 53% 29.92 in 10.0 mi SSW 15.0 mph 19.6 mph N/A   Clear
3:15 AM 44.6 °F 38.4 °F 28.4 °F 53% 29.92 in 10.0 mi SSW 12.7 mph - N/A   Clear
3:35 AM 44.6 °F 38.1 °F 28.4 °F 53% 29.92 in 10.0 mi SSW 13.8 mph 20.7 mph N/A   Clear
3:55 AM 44.6 °F 38.1 °F 28.4 °F 53% 29.92 in 10.0 mi SSW 13.8 mph - N/A   Clear
4:15 AM 44.6 °F 38.1 °F 28.4 °F 53% 29.92 in 10.0 mi SSW 13.8 mph - N/A   Clear
4:35 AM 44.6 °F 38.1 °F 28.4 °F 53% 29.92 in 10.0 mi SSW 13.8 mph - N/A   Clear
4:55 AM 44.6 °F 38.8 °F 28.4 °F 53% 29.92 in 10.0 mi SSW 11.5 mph - N/A   Clear
5:15 AM 44.6 °F 37.2 °F 28.4 °F 53% 29.92 in 10.0 mi SSW 17.3 mph 23.0 mph N/A   Clear
5:35 AM 44.6 °F 38.1 °F 28.4 °F 53% 29.93 in 10.0 mi SW 13.8 mph 19.6 mph N/A   Clear
5:55 AM 44.6 °F 37.8 °F 28.4 °F 53% 29.93 in 10.0 mi SW 15.0 mph - N/A   Clear
6:15 AM 44.6 °F 38.4 °F 28.4 °F 53% 29.94 in 10.0 mi SW 12.7 mph - N/A   Clear
6:35 AM 44.6 °F 40.7 °F 30.2 °F 57% 29.97 in 10.0 mi West 6.9 mph - N/A   Clear
6:55 AM 44.6 °F 40.2 °F 30.2 °F 57% 29.97 in 10.0 mi WSW 8.1 mph - N/A   Clear
7:35 AM 44.6 °F 40.7 °F 30.2 °F 57% 29.99 in 10.0 mi WSW 6.9 mph - N/A   Clear
7:55 AM 44.6 °F 40.7 °F 30.2 °F 57% 29.98 in 10.0 mi WSW 6.9 mph - N/A   Clear
8:15 AM 44.6 °F 41.4 °F 30.2 °F 57% 30.00 in 10.0 mi West 5.8 mph - N/A   Clear
8:35 AM 46.4 °F 42.9 °F 30.2 °F 53% 30.01 in 10.0 mi West 6.9 mph - N/A   Clear
8:55 AM 46.4 °F 41.5 °F 30.2 °F 53% 30.01 in 10.0 mi West 10.4 mph - N/A   Clear
9:15 AM 46.4 °F 41.9 °F 30.2 °F 53% 30.02 in 10.0 mi WNW 9.2 mph - N/A   Clear
9:35 AM 48.2 °F - 30.2 °F 50% 30.03 in 10.0 mi NNW 9.2 mph 17.3 mph N/A   Clear
9:55 AM 48.2 °F - 28.4 °F 46% 30.04 in 10.0 mi NNW 15.0 mph 20.7 mph N/A   Clear
10:15 AM 46.4 °F 39.5 °F 28.4 °F 50% 30.07 in 10.0 mi North 17.3 mph 20.7 mph N/A   Clear
10:35 AM 46.4 °F 39.8 °F 28.4 °F 50% 30.09 in 10.0 mi North 16.1 mph - N/A   Clear
10:55 AM 44.6 °F 38.4 °F 30.2 °F 57% 30.11 in 10.0 mi North 12.7 mph 21.9 mph N/A   Clear
11:15 AM 44.6 °F 37.4 °F 30.2 °F 57% 30.11 in 10.0 mi North 16.1 mph 21.9 mph N/A   Clear
11:35 AM 44.6 °F 38.1 °F 30.2 °F 57% 30.13 in 10.0 mi North 13.8 mph - N/A   Scattered Clouds
11:55 AM 46.4 °F 39.5 °F 32.0 °F 57% 30.13 in 10.0 mi North 17.3 mph 21.9 mph N/A   Scattered Clouds
12:15 PM 44.6 °F 37.4 °F 32.0 °F 61% 30.13 in 10.0 mi North 16.1 mph 20.7 mph N/A   Scattered Clouds
12:55 PM 44.6 °F 37.4 °F 30.2 °F 57% 30.14 in 10.0 mi North 16.1 mph 21.9 mph N/A   Scattered Clouds
1:15 PM 44.6 °F 37.8 °F 30.2 °F 57% 30.15 in 10.0 mi North 15.0 mph 24.2 mph N/A   Mostly Cloudy
1:35 PM 44.6 °F 37.4 °F 28.4 °F 53% 30.16 in 10.0 mi North 16.1 mph 20.7 mph N/A Rain Light Rain
1:55 PM 44.6 °F 39.7 °F 30.2 °F 57% 30.15 in 10.0 mi North 9.2 mph - N/A Rain Rain
2:35 PM 44.6 °F 38.4 °F 28.4 °F 53% 30.14 in 10.0 mi North 12.7 mph 18.4 mph N/A Rain Light Rain
2:55 PM 46.4 °F 40.4 °F 26.6 °F 46% 30.18 in 10.0 mi North 13.8 mph - N/A   Scattered Clouds
3:15 PM 44.6 °F 38.8 °F 26.6 °F 49% 30.18 in 10.0 mi North 11.5 mph 19.6 mph N/A   Mostly Cloudy
3:35 PM 46.4 °F 40.4 °F 26.6 °F 46% 30.19 in 10.0 mi North 13.8 mph 17.3 mph N/A   Mostly Cloudy
3:55 PM 46.4 °F 39.8 °F 26.6 °F 46% 30.20 in 10.0 mi North 16.1 mph - N/A   Overcast
4:15 PM 46.4 °F 40.7 °F 24.8 °F 43% 30.21 in 10.0 mi NNW 12.7 mph 18.4 mph N/A   Overcast
4:35 PM 46.4 °F 40.4 °F 24.8 °F 43% 30.20 in 10.0 mi North 13.8 mph 18.4 mph N/A   Overcast
5:35 PM 46.4 °F 40.7 °F 21.2 °F 37% 30.21 in 10.0 mi North 12.7 mph - N/A   Overcast
5:55 PM 44.6 °F 38.4 °F 19.4 °F 37% 30.22 in 10.0 mi North 12.7 mph - N/A   Overcast
6:35 PM 44.6 °F 40.2 °F 19.4 °F 37% 30.22 in 10.0 mi North 8.1 mph - N/A   Mostly Cloudy
6:55 PM 42.8 °F 39.3 °F 21.2 °F 42% 30.24 in 10.0 mi North 5.8 mph - N/A   Mostly Cloudy
7:15 PM 42.8 °F 38.0 °F 21.2 °F 42% 30.24 in 10.0 mi NNW 8.1 mph - N/A   Mostly Cloudy
7:35 PM 42.8 °F 38.0 °F 19.4 °F 39% 30.26 in 10.0 mi North 8.1 mph - N/A   Scattered Clouds
8:15 PM 42.8 °F 38.0 °F 17.6 °F 36% 30.28 in 10.0 mi North 8.1 mph - N/A   Scattered Clouds
8:35 PM 42.8 °F 37.0 °F 15.8 °F 34% 30.29 in 10.0 mi North 10.4 mph - N/A   Scattered Clouds
8:55 PM 42.8 °F 38.6 °F 17.6 °F 36% 30.30 in 10.0 mi North 6.9 mph - N/A   Scattered Clouds
9:15 PM 41.0 °F 36.4 °F 17.6 °F 39% 30.31 in 10.0 mi North 6.9 mph - N/A   Clear
9:35 PM 41.0 °F 36.4 °F 17.6 °F 39% 30.31 in 10.0 mi North 6.9 mph - N/A   Clear
9:55 PM 39.2 °F 35.0 °F 19.4 °F 45% 30.32 in 10.0 mi North 5.8 mph - N/A   Clear
10:15 PM 37.4 °F 33.8 °F 19.4 °F 48% 30.33 in 10.0 mi North 4.6 mph - N/A   Clear
10:55 PM 35.6 °F 30.7 °F 19.4 °F 52% 30.35 in 10.0 mi North 5.8 mph - N/A   Clear
11:15 PM 33.8 °F 27.7 °F 19.4 °F 56% 30.36 in 10.0 mi North 6.9 mph - N/A   Clear
11:35 PM 33.8 °F 27.7 °F 19.4 °F 56% 30.36 in 10.0 mi North 6.9 mph - N/A   Clear
11:55 PM 32.0 °F 26.4 °F 17.6 °F 55% 30.37 in 10.0 mi North 5.8 mph - N/A   Clear